星链-38033(STARLINK-38033)

导读

STARLINK-38033(NORAD编号69739)是美国太空探索技术公司(SpaceX)星链低轨卫星星座的组网卫星,隶属于星链巨型宽带通信卫星系统,运行于近地轨道,主要用于构建覆盖全球的低轨卫星互联网网络。 该卫星属于星链批量部署的量产通信小卫星,具备星间链路通信能力,可与其他星链卫星、地面终端传输数据,支持高速互联网接入服务,后续可拓展适配手机直连等功能,为全球偏远及常规通信盲区提供网络覆盖。卫星设计包含自主避碰与寿期末离轨程序,符合低轨空间碎片减缓要求,当前处于在轨服役状态,持续参与星链网络的全球通信服务支撑。

Basic Information
目录编号:
69739
目录名称:
STARLINK-38033
国际标识:
2026-150A
轨道中心:
EARTH
卫星名称:
星链-38033
卫星全名:
星链-38033(STARLINK-38033)
卫星状态:
在轨 (已飞行64 天)
发射日期:
2026-07-02 UTC
国别 :
美国 (US)
星等 :
--
Orbit Information
数据来源 国际轨道数据 AOE轨道数据
星历时间 2026-09-03T14:42:55+0800
21小时前
查看轨道信息
2026-08-31T23:00:00+0800
3天前
查看轨道信息
半长轴 6843.681km 6843.603km
偏心率 0.0001094 0.000173
轨道倾角 97.287° 97.287°
近地点辐角 86.934° 89.340°
升交点赤经 85.403° 82.786°
平近点角 273.203° 24.831°
近地点 464.795km 464.282km
远地点 466.293km 466.65km
周期 93.906分钟 93.905分钟
每日圈数 15.33445 15.33471
Detailed Information
固有亮度:
5
最大亮度:
2.5
卫星平台:
Starlink V1.0
覆盖范围:
全球
运营商:
太空探索技术公司
运营商所在国:
美国
制造商(研发单位):
太空探索技术公司
制造商所在国:
美国
使用方式:
暂无
Satellite Introduction
Starlink 计划是 SpaceX 推出的全球卫星互联网项目,通过发射低轨道卫星,为全球尤其是偏远地区提供高速、低延迟的互联网服务。自 2019 年起,Starlink 已部署数千颗卫星,旨在缩小全球数字鸿沟,推动互联网普及。该项目还为军事、航空等行业提供通信支持,带来广泛经济效益。
2D Orbit Map
3D Orbit Map
Orbit Altitude Analysis Chart
Orbit Inclination Analysis Chart
Orbit Comprehensive Analysis Chart
View Comprehensive Chart
Conjunction Data List
Event ID Objects TCA Miss Dist (km) Collision Risk Probability Collision Risk Index (CRI) Action
CDM_260903-192705-299006-973921
2026-09-03T
19:27:55+0000
2.323 km
极远距离
1.595644E-6 低风险 0.39
CDM_260905-083106-393406-973921
2026-09-05T
08:31:23+0000
2.562 km
极远距离
1.434459E-6 低风险 0.38
CDM_260904-203105-298706-973921
2026-09-04T
20:31:30+0000
2.990 km
极远距离
1.08718E-6 低风险 0.36